DIAMANT DEB, 2684

Orbit data source: Space-Track

DIAMANT DEB, 2684 is space debris in LEO originally from a launch on Wed, 15 Feb 1967 UTC launched from the Hamma Guira Space Track Range (HGSTR). Debris objects in space refer to the collection of defunct objects orbiting the Earth. Examples of debris include non-operational satellites, rocket bodies, and fragments generated from explosions, collisions, or faulty payload assembly.

Loading next visibility...
Identifier
2684, 1967-014C
Orbit
LEO
Country
Flag of FRFR
Related business
Manufacturer
Unknown
Mission
Spacecraft
Bus & Motor
Unknown
Mass
Unknown
Launch date (UTC)
1967-02-15 (59 years ago)
Launch vehicle
Unknown
Launch site
Hamma Guira Space Track Range (HGSTR)
Object type
Payload
Rocket body
Debris
Shape & HBR
Unknown shape, 0.1 m
Radar Cross Section
Small (<0.1 m²)

Expand to show TLE details & history
Last TLE update: 1 day ago

TLE from 1 day ago
0 DIAMANT DEB
1 02684U 67014C   25291.78251260  .00004991  00000-0  11899-2 0  9991
2 02684  39.9554 128.5683 0448958   0.2771 359.8173 14.07052929906948
Epoch: 2025-10-18T18:46Z
TLE epoch observation values (Epoch: 2025-10-18T18:46:49.088Z)
Latitude
0.00001°
Longitude
179.3552°
Altitude
543.606 km
Speed
7.76 km/s
True Right ascension
08h 34m 16s
True Declination
0° 00' 00"
Sunlit
Object was in daylight at epoch
Visualization orbit readout
Latitude
Unknown
Longitude
Unknown
Altitude
Unknown
Speed
Unknown
Apparent Right ascension
Unknown
Apparent Declination
Unknown
Sunlit
N/A
Visualization observer readout
Local Sidereal Time
18:46:24
Azimuth
Unknown
Elevation
Unknown
Doppler factor
Unknown
Orbital elements
Apogee altitude
1,197.296 km
Perigee altitude
546.312 km
Semi-major axis
7,249.941 km
Eccentricity
0.0449
Inclination
39.9554°
RAAN
128.5683°
Arg. of periapsis
0.2771°
True anomaly
359.79992°
Mean anomaly
359.8173°
Eccentric anomaly
359.80871°
Mean motion
3.51594 °/min
Orbital period
102.39 mins
BSTAR
0.0011899
Loading maneuver chart data...
Computing Atmospheric mass density...
Loading historical data...
Loading historical data...
Loading historical data...
Loading historical data...
Loading historical data...
Loading historical data...
Loading historical data...

Documentation

Showing up to 5 results
|